Lid_Strength_Index
3 3 3 3 3 3 3 4 3 2 2 2 2 2 3 2 3 5 8 5 5 -0 2 6 8 8 9 10 8 8 10 12 12 11 11 7 8 6 4 6 5 5 5 3 2
4 3 3 3 3 3 3 4 3 3 2 2 2 3 3 2 6 9 3 -1 -1 -1 9 10 10 9 10 11 10 11 12 11 8 7 9 8 8 7 7 7 7 5 3 2 2
4 4 3 3 4 4 4 4 3 4 2 2 2 3 3 4 9 8 -1 -2 -1 0 10 9 8 8 11 11 11 9 12 8 7 6 7 8 8 6 7 9 7 7 5 4 3
4 4 4 3 4 4 4 4 4 4 3 3 3 3 2 6 12 7 -3 -2 -1 6 9 9 10 10 10 9 8 9 7 7 7 6 7 8 7 8 7 7 5 4 4 4 4
3 4 4 4 4 4 4 4 4 4 3 3 2 2 6 10 10 3 -3 -1 6 9 9 9 10 11 10 8 7 8 8 7 6 6 7 6 8 8 7 5 4 4 4 4 4
3 3 4 5 5 5 5 5 4 5 4 3 2 2 9 11 7 2 5 6 7 9 9 9 9 10 8 8 8 7 7 8 7 7 7 8 8 7 7 5 5 5 5 4 4
3 3 3 3 3 4 5 5 4 5 4 3 2 3 10 9 5 5 6 8 8 7 8 8 9 9 8 8 7 6 10 8 8 8 8 7 9 9 6 5 6 5 5 4 4
3 3 3 3 3 5 5 5 5 4 4 3 2 6 9 8 5 5 6 6 6 7 7 8 8 9 8 7 8 9 10 13 9 8 7 8 13 8 5 6 6 6 5 5 4
3 3 3 3 3 4 5 5 5 4 4 3 6 6 10 5 6 6 6 7 8 8 7 6 8 9 8 10 12 11 13 13 12 8 8 9 12 8 6 6 7 6 6 5 5
3 3 3 3 3 4 5 5 5 5 4 3 4 10 7 8 5 6 7 7 7 7 7 8 10 11 12 12 14 13 13 13 13 10 9 11 12 8 7 7 7 7 6 6 5
3 3 3 3 4 4 6 11 10 11 10 10 9 8 7 5 6 6 6 6 6 7 10 9 11 12 11 10 11 10 11 13 11 9 10 12 12 10 8 7 7 7 7 6 5
3 3 3 3 4 4 8 10 10 11 12 9 9 8 6 5 8 7 6 7 8 11 10 10 12 10 9 9 9 10 12 13 11 9 10 11 12 10 8 8 7 7 7 6 5
4 4 3 4 4 8 10 8 9 11 13 10 8 8 8 6 8 8 6 7 8 10 11 11 10 8 9 9 10 12 12 12 12 10 10 11 13 12 9 8 7 6 6 5 5
4 4 4 4 8 10 10 8 9 10 13 10 8 7 7 7 8 6 5 6 8 11 10 10 9 9 10 9 9 13 9 10 11 12 16 11 17 13 11 9 8 7 7 6 5
5 4 4 5 10 9 9 8 9 8 16 9 9 7 8 8 7 6 5 6 9 9 10 10 10 10 11 10 8 11 8 10 10 13 14 14 16 13 11 11 10 8 7 7 6
5 5 5 8 9 8 7 8 8 13 15 11 11 11 10 9 8 7 6 6 7 9 10 10 8 9 10 7 7 7 9 11 11 13 17 15 15 15 13 11 9 8 7 6 6
5 5 7 6 9 9 8 8 14 15 10 12 13 12 12 11 9 8 9 9 11 12 13 10 9 9 6 9 9 10 12 16 17 17 18 14 15 13 10 9 8 8 7 6 7
6 6 7 6 8 7 7 11 17 12 11 8 11 12 12 10 10 9 9 11 10 10 12 13 13 9 8 9 10 10 12 15 18 18 17 14 17 14 8 7 7 6 7 7 7
7 10 9 7 6 7 9 15 15 11 8 9 10 13 13 11 10 11 11 11 10 10 12 12 12 8 8 9 9 11 13 12 15 15 18 16 13 10 9 9 8 9 9 8 7
9 8 8 7 8 8 11 13 12 8 8 9 12 12 14 12 11 12 11 9 9 8 9 10 13 9 8 8 9 11 10 14 14 19 21 17 16 15 12 10 9 10 9 9 7
8 9 7 7 9 11 14 13 11 8 8 10 10 11 13 13 11 12 10 9 8 7 8 9 10 11 9 10 11 12 12 13 13 14 18 19 16 10 10 9 9 10 9 9 7
10 11 6 9 12 14 14 11 10 9 8 10 9 9 10 10 12 12 10 8 6 6 9 9 11 13 11 9 8 11 12 12 14 15 15 15 16 9 9 8 8 9 9 9 7
12 11 6 9 13 14 13 10 9 10 10 10 9 8 8 10 12 11 9 6 6 7 8 9 12 14 13 11 10 11 11 11 12 12 16 16 14 8 8 8 8 9 9 8 8
11 12 9 11 12 13 13 12 10 7 8 7 8 8 9 10 10 10 9 7 5 6 5 8 12 12 14 12 11 12 10 10 11 14 14 14 13 11 10 9 8 9 9 8 8
11 11 8 11 12 13 13 11 11 11 9 8 10 9 10 12 11 11 9 8 6 6 7 10 11 12 11 10 9 10 11 11 11 11 13 11 12 10 9 8 7 8 10 9 8
10 8 8 9 8 10 12 12 11 10 9 9 10 9 8 10 10 12 9 10 10 8 9 9 12 11 12 9 10 10 10 10 10 10 11 11 12 8 7 8 8 9 9 9 8
9 8 8 10 9 12 12 11 9 7 8 7 8 10 9 8 8 8 9 9 9 10 9 10 11 12 14 11 11 12 10 10 10 9 10 13 10 8 8 8 8 9 9 8 7